DH8TOM-2 Weather Reports


Display with metric or nautical units.
time (UTC)temp
F
wind
direction
speed
MPH
gust
MPH
rain 1hr
in
rain 24hr
in
rain mn
in
humidity
%
barometer
mb
20260503204438 60 270 1.0 2.0 0.00 0.00 0.00 58 1012.6
20260503203937 60 270 1.0 2.0 0.00 0.00 0.00 58 1012.6
20260503203435 60 270 1.0 3.0 0.00 0.00 0.00 57 1012.6
20260503202934 60 270 1.0 3.0 0.00 0.00 0.00 57 1012.6
20260503202433 60 241 1.0 3.0 0.00 0.00 0.00 56 1012.5
20260503201933 60 241 1.0 3.0 0.00 0.00 0.00 56 1012.5
20260503201432 60 229 1.0 3.0 0.00 0.00 0.00 55 1012.4
20260503200931 60 229 1.0 3.0 0.00 0.00 0.00 55 1012.4
20260503200430 61 249 1.0 2.0 0.00 0.00 0.00 54 1012.3
20260503195929 61 249 1.0 2.0 0.00 0.00 0.00 54 1012.3
20260503195427 61 254 1.0 2.0 0.00 0.00 0.00 54 1012.3
20260503194926 61 254 1.0 2.0 0.00 0.00 0.00 54 1012.3
20260503194426 62 251 1.0 2.0 0.00 0.00 0.00 53 1012.2
20260503193925 62 251 1.0 2.0 0.00 0.00 0.00 53 1012.2
20260503193424 63 270 1.0 3.0 0.00 0.00 0.00 52 1012.2
20260503192923 63 270 1.0 3.0 0.00 0.00 0.00 52 1012.2
20260503192422 63 296 1.0 3.0 0.00 0.00 0.00 51 1012.0
20260503191921 63 296 1.0 3.0 0.00 0.00 0.00 51 1012.0
20260503191419 64 294 1.0 4.0 0.00 0.00 0.00 51 1012.0
20260503190918 64 294 1.0 4.0 0.00 0.00 0.00 51 1012.0
20260503190417 65 307 1.0 4.0 0.00 0.00 0.00 50 1011.9
20260503185916 65 307 1.0 4.0 0.00 0.00 0.00 50 1011.9
20260503185416 65 288 1.0 3.0 0.00 0.00 0.00 48 1011.8
20260503184915 65 288 1.0 3.0 0.00 0.00 0.00 48 1011.8
20260503184414 66 236 1.0 2.0 0.00 0.00 0.00 48 1011.7
20260503183912 66 236 1.0 2.0 0.00 0.00 0.00 48 1011.7
20260503183412 66 270 1.0 3.0 0.00 0.00 0.00 47 1011.6
20260503182911 66 270 1.0 3.0 0.00 0.00 0.00 47 1011.6
20260503182410 67 315 1.0 3.0 0.00 0.00 0.00 47 1011.7
20260503181909 67 315 1.0 3.0 0.00 0.00 0.00 47 1011.7
20260503181407 67 90 1.0 3.0 0.00 0.00 0.00 46 1011.8
20260503180906 67 90 1.0 3.0 0.00 0.00 0.00 46 1011.8
20260503180405 68 225 2.0 7.0 0.00 0.00 0.00 45 1011.7
20260503175904 68 225 2.0 7.0 0.00 0.00 0.00 45 1011.7
20260503175404 68 293 2.0 5.0 0.00 0.00 0.00 44 1011.6
20260503174903 68 293 2.0 5.0 0.00 0.00 0.00 44 1011.6
20260503174402 69 295 3.0 9.0 0.00 0.00 0.00 45 1011.4
20260503173901 69 295 3.0 9.0 0.00 0.00 0.00 45 1011.4
20260503173400 70 198 1.0 3.0 0.00 0.00 0.00 56 1011.3
20260503172859 70 198 1.0 3.0 0.00 0.00 0.00 56 1011.3
20260503172357 71 290 1.0 4.0 0.00 0.00 0.00 55 1010.9
20260503171856 71 290 1.0 4.0 0.00 0.00 0.00 55 1010.9
20260503171355 71 270 1.0 2.0 0.00 0.00 0.00 55 1010.9
20260503170855 71 270 1.0 2.0 0.00 0.00 0.00 55 1010.9
20260503170353 71 195 1.0 2.0 0.00 0.00 0.00 55 1010.8
20260503150830 74 291 2.0 5.0 0.00 0.00 0.00 47 1010.7
20260503150330 75 283 2.0 5.0 0.00 0.00 0.00 45 1010.7
20260503131414 78 246 2.0 6.0 0.00 0.00 0.00 40 1011.6
20260503130906 78 246 2.0 6.0 0.00 0.00 0.00 40 1011.6
20260503130321 77 211 2.0 9.0 0.00 0.00 0.00 42 1011.8
20260502212026 61 270 1.0 2.0 0.00 0.00 0.00 56 1014.2
20260502211507 61 270 1.0 2.0 0.00 0.00 0.00 55 1014.1
20260502210527 62 270 1.0 2.0 0.00 0.00 0.00 55 1014.2
20260502205503 62 270 1.0 4.0 0.00 0.00 0.00 54 1014.3
20260502204501 62 270 1.0 4.0 0.00 0.00 0.00 54 1014.3